Home > Time Zones > World Clock > Weather > U.S.A. > Nome > Past weeks

Flag for U.S.A. Weather past 2 weeks in Nome, Alaska, U.S.A.

Now
41 °F

Mostly cloudy.


Feels Like: 36 °F
Forecast: 35 / 43 °F
Wind: 7 mph from Northeast

Location: Nome Airport

Current Time: Oct 2, 2014 at 8:58:47 AM

Latest Report: Oct 2, 2014 at 7:53 AM


Visibility: 10 mi

Pressure: 30.16 "Hg

Humidity: 89%

Dew point: 38 °F

Location of NomeLocation

Historic Weather in Nome — Graph

°F

Nome temperature yesterday

Maximum temperature yesterday: 47 °F (at 12:53 PM)
Minimum temperature yesterday: 42 °F (at 10:53 PM)
Average temperature yesterday: 45 °F

Past Weeks' High & Low Weather Summary

 TemperatureHumidityPressure
High54 °F (Sep 17, 7:53 PM)100% (Sep 25, 2:53 AM)30.26 "Hg (Sep 25, 2:53 AM)
Low27 °F (Sep 23, 7:53 AM)50% (Sep 20, 4:53 PM)29.29 "Hg (Sep 17, 9:53 PM)
Average42 °F83%29.86 "Hg
* Reported Sep 17 6:53 AM — Oct 2 6:53 AM, Nome, Weather by CustomWeather, © 2014

Note: Actual official high and low records may vary slightly from our data, if they occured in-between our weather recording intervals... More about our weather records

Advertising

Nome weather history for previous 24 hours

 ConditionsComfort  
Time TempWeatherWind HumidityBarometerVisibility
6:53 AM
Oct 2
40 °FMostly cloudy.3 mph93%30.16 "Hg10 mi
5:53 AM41 °FOvercast.7 mph89%30.17 "Hg10 mi
4:53 AM42 °FOvercast.No wind89%30.18 "Hg10 mi
3:53 AM41 °FOvercast.3 mph93%30.18 "Hg10 mi
2:53 AM42 °FLight rain. Overcast.No wind89%30.19 "Hg10 mi
1:53 AM43 °FOvercast.3 mph89%30.18 "Hg10 mi
12:53 AM44 °FOvercast.No wind89%30.18 "Hg10 mi
11:53 PM
Oct 1
42 °FPassing clouds.3 mph96%30.17 "Hg10 mi
10:53 PM42 °FPassing clouds.No wind96%30.16 "Hg9 mi
9:53 PM43 °FPassing clouds.5 mph100%30.18 "Hg10 mi
8:53 PM44 °FPartly sunny.5 mph96%30.18 "Hg10 mi
8:01 PM45 °FPartly sunny.No wind97%30.19 "Hg10 mi
6:53 PM46 °FPartly sunny.8 mph93%30.20 "Hg10 mi
5:53 PM46 °FPartly sunny.7 mph93%30.20 "Hg10 mi
4:53 PM46 °FOvercast.7 mph89%30.21 "Hg10 mi
3:53 PM46 °FOvercast.9 mph89%30.22 "Hg10 mi
2:53 PM46 °FLight rain. More clouds than sun.13 mph93%30.23 "Hg10 mi
1:53 PM47 °FOvercast.15 mph86%30.23 "Hg10 mi
12:53 PM47 °FBroken clouds.15 mph90%30.22 "Hg10 mi
11:53 AM46 °FBroken clouds.10 mph89%30.23 "Hg10 mi
10:53 AM45 °FOvercast.10 mph93%30.23 "Hg10 mi
9:53 AM45 °FPartly cloudy.16 mph93%30.23 "Hg10 mi
8:53 AM46 °FOvercast.15 mph93%30.24 "Hg10 mi
Weather by CustomWeather, © 2014

See weather overviewHow to use our weather pages